Location: Unspecified
(33.1972°N, 0.0000°E)
Time: 03:12:51
(UTC+00:00)

N. Korean satellite - Visible Passes

Search period start: 21 November 2019 00:00
Search period end: 01 December 2019 00:00
Orbit: 456 x 506 km, 97.2° (Epoch: 20 November)

Date Brightness Start Highest point End Pass type
(mag) Time Alt. Az. Time Alt. Az. Time Alt. Az.
21 Nov 8.4 05:21:51 10° NNE 05:25:14 34° E 05:28:32 10° SSE visible
21 Nov 7.5 17:25:48 10° S 17:29:20 54° W 17:32:57 10° NNW visible
22 Nov 9.9 04:57:28 10° NE 04:59:44 16° E 05:01:57 10° SE visible
23 Nov 6.7 06:04:13 10° N 06:07:47 52° WNW 06:11:18 10° SSW visible
23 Nov 10.0 18:10:07 10° SW 18:12:05 14° W 18:14:04 10° WNW visible
24 Nov 7.1 05:38:48 10° NNE 05:42:27 63° E 05:45:59 10° S visible
24 Nov 8.8 17:43:19 10° SSW 17:46:33 30° W 17:49:51 10° NW visible
25 Nov 8.9 05:13:52 10° NE 05:16:59 26° E 05:20:02 10° SSE visible
25 Nov 7.0 17:17:29 10° S 17:21:08 72° W 17:24:49 10° NNW visible
26 Nov 10.1 04:49:58 10° ENE 04:51:27 12° E 04:52:53 10° ESE visible
27 Nov 6.5 05:55:58 10° N 05:59:34 70° WNW 06:03:06 10° SSW visible
27 Nov 9.8 18:01:14 10° SW 18:03:47 18° W 18:06:22 10° NW visible
28 Nov 7.7 05:30:41 10° NNE 05:34:10 46° E 05:37:35 10° S visible
28 Nov 8.3 17:34:50 10° SSW 17:38:17 39° W 17:41:48 10° NNW visible
29 Nov 9.4 05:05:56 10° NE 05:08:41 20° E 05:11:22 10° SE visible
30 Nov 7.1 06:13:17 10° N 06:16:38 37° WNW 06:19:55 10° SW visible
30 Nov 10.4 18:20:19 10° WSW 18:21:02 10° W 18:21:45 10° W visible
